When you browse on this site, cookies collect data to enhance your experience and personalize the content and advertising you see.
Visit our Privacy Policy to learn more. By continuing to use the site, you agree to this use of cookies and data.
  • In Hungary
  • List of Countries
  • For 7 days
  • Water Temperature
  • Weather Map
  • News
  • Weather Widgets
  • user-avatar
    Login

    Hourly Weather Klyuchnikovo

    Today, 19 October, Saturday

    Time Temperature Precipitation Wind Pressure Humidity
    00:00 +9°C° 0 mm 0 mps 746 mmHg 89%
    01:00 +9°C° 0 mm 0 mps 746 mmHg 89%
    02:00 +10°C° 0 mm 1 mps 746 mmHg 89%
    03:00 +10°C° 0 mm 1 mps 746 mmHg 90%
    04:00 +10°C° 0 mm 1 mps 746 mmHg 90%
    05:00 +10°C° 0 mm 1 mps 746 mmHg 90%
    06:00 +10°C° 0 mm 1 mps 746 mmHg 88%
    07:00 +10°C° 0 mm 2 mps 746 mmHg 86%
    08:00 +10°C° 0 mm 2 mps 747 mmHg 84%
    09:00 +13°C° 0 mm 2 mps 747 mmHg 78%
    10:00 +14°C° 0 mm 2 mps 747 mmHg 72%
    11:00 +14°C° 0 mm 3 mps 747 mmHg 66%
    12:00 +16°C° 0 mm 3 mps 747 mmHg 64%
    13:00 +16°C° 0 mm 2 mps 747 mmHg 63%
    14:00 +17°C° 0 mm 2 mps 747 mmHg 61%
    15:00 +15°C° 0 mm 2 mps 747 mmHg 66%
    16:00 +14°C° 0 mm 2 mps 746 mmHg 70%
    17:00 +13°C° 0 mm 2 mps 746 mmHg 75%
    18:00 +13°C° 0 mm 2 mps 747 mmHg 76%
    19:00 +12°C° 0 mm 2 mps 747 mmHg 78%
    20:00 +12°C° 0 mm 2 mps 747 mmHg 79%
    21:00 +12°C° 0 mm 2 mps 747 mmHg 79%
    22:00 +12°C° 0 mm 2 mps 747 mmHg 80%
    23:00 +10°C° 0 mm 2 mps 747 mmHg 81%

    Tomorrow, 20 October, Sunday

    Time Temperature Precipitation Wind Pressure Humidity
    00:00 +10°C° 0 mm 2 mps 747 mmHg 82%
    01:00 +10°C° 0 mm 2 mps 747 mmHg 82%
    02:00 +10°C° 0 mm 2 mps 748 mmHg 83%
    03:00 +10°C° 0 mm 2 mps 748 mmHg 85%
    04:00 +9°C° 0 mm 2 mps 748 mmHg 87%
    05:00 +9°C° 0 mm 2 mps 748 mmHg 89%
    06:00 +10°C° 0 mm 3 mps 748 mmHg 88%
    07:00 +10°C° 0 mm 3 mps 748 mmHg 86%
    08:00 +11°C° 0 mm 3 mps 748 mmHg 84%
    09:00 +12°C° 0 mm 3 mps 748 mmHg 80%
    10:00 +14°C° 0 mm 3 mps 748 mmHg 75%
    11:00 +15°C° 0 mm 4 mps 748 mmHg 70%
    12:00 +17°C° 0 mm 3 mps 748 mmHg 69%
    13:00 +17°C° 0 mm 3 mps 748 mmHg 67%
    14:00 +17°C° 0 mm 3 mps 748 mmHg 66%
    15:00 +16°C° 0 mm 3 mps 748 mmHg 70%
    16:00 +14°C° 0 mm 3 mps 747 mmHg 75%
    17:00 +13°C° 0 mm 3 mps 747 mmHg 80%
    18:00 +13°C° 0 mm 3 mps 748 mmHg 80%
    19:00 +12°C° 0 mm 3 mps 748 mmHg 81%
    20:00 +12°C° 0 mm 3 mps 748 mmHg 81%
    21:00 +12°C° 0 mm 3 mps 748 mmHg 81%
    22:00 +12°C° 0 mm 3 mps 748 mmHg 81%
    23:00 +11°C° 0 mm 3 mps 748 mmHg 80%

    Day after tomorrow, 21 October, Monday

    Time Temperature Precipitation Wind Pressure Humidity
    00:00 +11°C° 0 mm 3 mps 748 mmHg 81%
    01:00 +11°C° 0 mm 3 mps 748 mmHg 82%
    02:00 +10°C° 0 mm 3 mps 748 mmHg 83%
    03:00 +10°C° 0 mm 3 mps 747 mmHg 83%
    04:00 +10°C° 0 mm 3 mps 747 mmHg 83%
    05:00 +9°C° 0 mm 3 mps 747 mmHg 83%
    06:00 +10°C° 0 mm 4 mps 747 mmHg 80%
    07:00 +11°C° 0 mm 4 mps 747 mmHg 77%
    08:00 +11°C° 0 mm 4 mps 747 mmHg 73%
    09:00 +13°C° 0 mm 4 mps 747 mmHg 69%
    10:00 +14°C° 0 mm 5 mps 747 mmHg 65%
    11:00 +15°C° 0 mm 5 mps 747 mmHg 61%
    12:00 +16°C° 0 mm 5 mps 747 mmHg 60%
    13:00 +16°C° 0 mm 5 mps 747 mmHg 59%
    14:00 +17°C° 0 mm 5 mps 747 mmHg 58%
    15:00 +17°C° 0 mm 4 mps 746 mmHg 63%
    16:00 +15°C° 0 mm 4 mps 746 mmHg 68%
    17:00 +13°C° 0 mm 4 mps 746 mmHg 73%
    18:00 +13°C° 0 mm 4 mps 746 mmHg 74%
    19:00 +13°C° 0 mm 4 mps 746 mmHg 75%
    20:00 +12°C° 0 mm 4 mps 746 mmHg 77%
    21:00 +12°C° 0 mm 4 mps 746 mmHg 77%
    22:00 +12°C° 0 mm 4 mps 746 mmHg 77%
    23:00 +11°C° 0 mm 4 mps 746 mmHg 78%

    22 October, Tuesday

    Time Temperature Precipitation Wind Pressure Humidity
    00:00 +11°C° 0 mm 3 mps 746 mmHg 78%
    01:00 +11°C° 0 mm 3 mps 746 mmHg 79%
    02:00 +10°C° 0 mm 3 mps 746 mmHg 79%
    03:00 +10°C° 0 mm 3 mps 746 mmHg 80%
    04:00 +10°C° 0 mm 3 mps 746 mmHg 80%
    05:00 +10°C° 0 mm 3 mps 746 mmHg 80%
    06:00 +10°C° 0 mm 3 mps 745 mmHg 78%
    07:00 +11°C° 0 mm 4 mps 745 mmHg 76%
    08:00 +11°C° 0 mm 4 mps 745 mmHg 74%
    09:00 +12°C° 0 mm 4 mps 745 mmHg 71%
    10:00 +14°C° 0 mm 4 mps 745 mmHg 67%
    11:00 +15°C° 0 mm 4 mps 745 mmHg 64%
    12:00 +15°C° 0 mm 4 mps 745 mmHg 63%
    13:00 +17°C° 0 mm 4 mps 745 mmHg 62%
    14:00 +18°C° 0 mm 4 mps 745 mmHg 61%
    15:00 +16°C° 0 mm 3 mps 745 mmHg 65%
    16:00 +14°C° 0 mm 3 mps 745 mmHg 70%
    17:00 +14°C° 0 mm 2 mps 745 mmHg 75%
    18:00 +14°C° 0 mm 2 mps 745 mmHg 77%
    19:00 +13°C° 0 mm 2 mps 745 mmHg 79%
    20:00 +13°C° 0 mm 2 mps 745 mmHg 82%
    21:00 +12°C° 0 mm 2 mps 745 mmHg 84%
    22:00 +12°C° 0 mm 2 mps 745 mmHg 86%
    23:00 +12°C° 0 mm 2 mps 745 mmHg 89%

    23 October, Wednesday

    Time Temperature Precipitation Wind Pressure Humidity
    00:00 +12°C° 0 mm 2 mps 745 mmHg 90%
    01:00 +10°C° 0 mm 2 mps 745 mmHg 91%
    02:00 +10°C° 0 mm 2 mps 745 mmHg 93%
    03:00 +10°C° 0 mm 2 mps 745 mmHg 93%
    04:00 +10°C° 0 mm 2 mps 746 mmHg 94%
    05:00 +10°C° 0 mm 2 mps 746 mmHg 94%
    06:00 +10°C° 0 mm 2 mps 746 mmHg 94%
    07:00 +12°C° 0 mm 2 mps 746 mmHg 93%
    08:00 +12°C° 0 mm 2 mps 746 mmHg 93%
    09:00 +13°C° 0 mm 2 mps 747 mmHg 87%
    10:00 +14°C° 0 mm 3 mps 747 mmHg 81%
    11:00 +16°C° 0 mm 3 mps 747 mmHg 76%
    12:00 +17°C° 0 mm 3 mps 747 mmHg 73%
    13:00 +17°C° 0 mm 3 mps 747 mmHg 71%
    14:00 +17°C° 0 mm 4 mps 747 mmHg 68%
    15:00 +16°C° 0 mm 3 mps 747 mmHg 74%
    16:00 +14°C° 0 mm 3 mps 747 mmHg 79%
    17:00 +13°C° 0 mm 3 mps 747 mmHg 85%
    18:00 +13°C° 0 mm 2 mps 747 mmHg 87%
    19:00 +12°C° 0 mm 2 mps 747 mmHg 89%
    20:00 +12°C° 0 mm 2 mps 747 mmHg 91%
    21:00 +10°C° 0 mm 2 mps 747 mmHg 92%
    22:00 +10°C° 0 mm 2 mps 747 mmHg 92%
    23:00 +9°C° 0 mm 2 mps 748 mmHg 92%

    24 October, Thursday

    Time Temperature Precipitation Wind Pressure Humidity
    00:00 +9°C° 0 mm 2 mps 748 mmHg 92%
    01:00 +9°C° 0 mm 2 mps 748 mmHg 92%
    02:00 +9°C° 0 mm 2 mps 748 mmHg 91%
    03:00 +8°C° 0 mm 2 mps 748 mmHg 92%
    04:00 +9°C° 0 mm 1 mps 748 mmHg 93%
    05:00 +9°C° 0 mm 1 mps 748 mmHg 93%
    06:00 +9°C° 0 mm 1 mps 748 mmHg 91%
    07:00 +9°C° 0 mm 1 mps 748 mmHg 90%
    08:00 +10°C° 0 mm 1 mps 748 mmHg 88%
    09:00 +11°C° 0 mm 1 mps 749 mmHg 82%
    10:00 +12°C° 0 mm 1 mps 749 mmHg 76%
    11:00 +13°C° 0 mm 1 mps 749 mmHg 70%
    12:00 +13°C° 0 mm 1 mps 749 mmHg 67%
    13:00 +14°C° 0 mm 1 mps 748 mmHg 64%
    14:00 +14°C° 0 mm 1 mps 748 mmHg 61%
    15:00 +13°C° 0 mm 1 mps 748 mmHg 65%
    16:00 +11°C° 0 mm 0 mps 748 mmHg 70%
    17:00 +10°C° 0 mm 0 mps 748 mmHg 75%
    18:00 +10°C° 0 mm 0 mps 748 mmHg 77%
    19:00 +10°C° 0 mm 0 mps 748 mmHg 79%
    20:00 +10°C° 0 mm 1 mps 748 mmHg 81%
    21:00 +10°C° 0 mm 1 mps 748 mmHg 83%
    22:00 +9°C° 0 mm 2 mps 747 mmHg 86%
    23:00 +9°C° 0 mm 2 mps 747 mmHg 88%
    Show more